Time,TemperatureF,DewpointF,PressureIn,WindDirection,WindDirectionDegrees,WindSpeedMPH,WindSpeedGustMPH,Humidity,HourlyPrecipIn,Conditions,Clouds,dailyrainin,SoftwareType,DateUTC
2013-02-23 00:08:00,43.9,38.2,30.08,North,0,0.0,0.0,80,0.00,,,0.00,WUHU21623XXSP,2013-02-23 08:08:00,
2013-02-23 00:18:00,43.9,37.8,30.07,North,0,0.0,0.0,79,0.00,,,0.00,WUHU21623XXSP,2013-02-23 08:18:00,
2013-02-23 00:28:00,43.9,37.8,30.06,North,0,0.0,0.0,79,0.00,,,0.00,WUHU21623XXSP,2013-02-23 08:28:00,
2013-02-23 00:38:00,43.9,37.5,30.05,North,0,0.0,0.0,78,0.00,,,0.00,WUHU21623XXSP,2013-02-23 08:38:00,
2013-02-23 00:48:00,43.5,37.1,30.04,North,0,0.0,0.0,78,0.00,,,0.00,WUHU21623XXSP,2013-02-23 08:48:00,
2013-02-23 00:58:00,43.3,36.9,30.04,North,0,0.0,0.0,78,0.00,,,0.00,WUHU21623XXSP,2013-02-23 08:58:00,
2013-02-23 01:08:00,43.3,36.9,30.04,North,0,0.0,0.0,78,0.00,,,0.00,WUHU21623XXSP,2013-02-23 09:08:00,
2013-02-23 01:18:00,43.2,37.2,30.04,North,0,0.0,0.0,79,0.00,,,0.00,WUHU21623XXSP,2013-02-23 09:18:00,
2013-02-23 01:28:00,43.0,37.0,30.03,North,0,0.0,0.0,79,0.00,,,0.00,WUHU21623XXSP,2013-02-23 09:28:00,
2013-02-23 01:38:00,42.6,36.6,30.02,North,0,0.0,0.0,79,0.00,,,0.00,WUHU21623XXSP,2013-02-23 09:38:00,
2013-02-23 01:48:00,42.4,36.4,30.02,North,0,0.0,0.0,79,0.00,,,0.00,WUHU21623XXSP,2013-02-23 09:48:00,
2013-02-23 01:58:00,42.4,36.7,30.01,North,0,0.0,0.0,80,0.00,,,0.00,WUHU21623XXSP,2013-02-23 09:58:00,
2013-02-23 02:08:00,42.6,36.9,30.02,North,0,0.0,0.0,80,0.00,,,0.00,WUHU21623XXSP,2013-02-23 10:08:00,
2013-02-23 02:18:00,43.3,37.6,30.02,North,0,0.0,0.0,80,0.00,,,0.00,WUHU21623XXSP,2013-02-23 10:18:00,
2013-02-23 02:28:00,44.1,38.0,30.03,North,0,0.0,0.0,79,0.00,,,0.00,WUHU21623XXSP,2013-02-23 10:28:00,
2013-02-23 02:38:00,44.8,38.7,30.03,North,0,0.0,0.0,79,0.00,,,0.00,WUHU21623XXSP,2013-02-23 10:38:00,
2013-02-23 02:48:00,45.5,39.1,30.02,North,0,0.0,0.0,78,0.00,,,0.00,WUHU21623XXSP,2013-02-23 10:48:00,
2013-02-23 02:58:00,46.0,39.2,30.01,North,0,0.0,0.0,77,0.00,,,0.00,WUHU21623XXSP,2013-02-23 10:58:00,
2013-02-23 03:08:00,46.0,39.2,30.02,North,0,0.0,0.0,77,0.00,,,0.00,WUHU21623XXSP,2013-02-23 11:08:00,
2013-02-23 03:18:00,46.0,38.9,30.01,North,0,0.0,0.0,76,0.00,,,0.00,WUHU21623XXSP,2013-02-23 11:18:00,
2013-02-23 03:28:00,46.0,39.2,30.02,North,0,0.0,0.0,77,0.00,,,0.00,WUHU21623XXSP,2013-02-23 11:28:00,
2013-02-23 03:38:00,46.0,39.6,30.02,North,0,0.0,0.0,78,0.00,,,0.00,WUHU21623XXSP,2013-02-23 11:38:00,
2013-02-23 03:48:00,46.0,39.6,30.02,North,0,0.0,0.0,78,0.00,,,0.00,WUHU21623XXSP,2013-02-23 11:48:00,
2013-02-23 03:58:00,45.7,39.3,30.01,North,0,0.0,0.0,78,0.00,,,0.00,WUHU21623XXSP,2013-02-23 11:58:00,
2013-02-23 04:08:00,45.7,39.6,30.01,North,0,0.0,0.0,79,0.00,,,0.00,WUHU21623XXSP,2013-02-23 12:08:00,
2013-02-23 04:18:00,45.5,39.4,30.03,North,0,0.0,0.0,79,0.00,,,0.00,WUHU21623XXSP,2013-02-23 12:18:00,
2013-02-23 04:28:00,45.5,39.4,30.02,North,0,0.0,0.0,79,0.00,,,0.00,WUHU21623XXSP,2013-02-23 12:28:00,
2013-02-23 04:38:00,45.3,39.2,30.02,North,0,0.0,0.0,79,0.00,,,0.00,WUHU21623XXSP,2013-02-23 12:38:00,
2013-02-23 04:48:00,45.1,39.3,30.02,North,0,0.0,0.0,80,0.00,,,0.00,WUHU21623XXSP,2013-02-23 12:48:00,
2013-02-23 04:58:00,45.1,39.3,30.01,North,0,0.0,0.0,80,0.00,,,0.00,WUHU21623XXSP,2013-02-23 12:58:00,
2013-02-23 05:08:00,45.0,39.2,30.01,North,0,0.0,0.0,80,0.00,,,0.00,WUHU21623XXSP,2013-02-23 13:08:00,
2013-02-23 05:18:00,45.0,39.2,30.01,North,0,0.0,0.0,80,0.00,,,0.00,WUHU21623XXSP,2013-02-23 13:18:00,
2013-02-23 05:28:00,44.8,39.0,30.02,North,0,0.0,0.0,80,0.00,,,0.00,WUHU21623XXSP,2013-02-23 13:28:00,
2013-02-23 05:38:00,44.8,39.3,30.02,North,0,0.0,0.0,81,0.00,,,0.00,WUHU21623XXSP,2013-02-23 13:38:00,
2013-02-23 05:48:00,44.8,39.3,30.03,North,0,0.0,0.0,81,0.00,,,0.00,WUHU21623XXSP,2013-02-23 13:48:00,
2013-02-23 05:58:00,44.6,39.1,30.04,North,0,0.0,0.0,81,0.00,,,0.00,WUHU21623XXSP,2013-02-23 13:58:00,
2013-02-23 06:08:00,44.4,39.0,30.04,North,0,0.0,0.0,81,0.00,,,0.00,WUHU21623XXSP,2013-02-23 14:08:00,
2013-02-23 06:18:00,44.4,39.0,30.04,North,0,0.0,0.0,81,0.00,,,0.00,WUHU21623XXSP,2013-02-23 14:18:00,
2013-02-23 06:28:00,44.4,39.0,30.04,North,0,0.0,0.0,81,0.00,,,0.00,WUHU21623XXSP,2013-02-23 14:28:00,
2013-02-23 06:38:00,44.4,39.3,30.04,North,0,0.0,0.0,82,0.00,,,0.00,WUHU21623XXSP,2013-02-23 14:38:00,
2013-02-23 06:48:00,44.2,39.1,30.04,North,0,0.0,0.0,82,0.00,,,0.00,WUHU21623XXSP,2013-02-23 14:48:00,
2013-02-23 07:03:00,44.1,39.0,30.05,North,0,0.0,0.0,82,0.00,,,0.00,WUHU21623XXSP,2013-02-23 15:03:00,
2013-02-23 07:08:00,44.1,38.9,30.06,North,0,0.0,0.0,82,0.00,,,0.00,WUHU21623XXSP,2013-02-23 15:08:00,
2013-02-23 07:13:00,44.1,38.9,30.06,North,0,0.0,0.0,82,0.00,,,0.00,WUHU21623XXSP,2013-02-23 15:13:00,
2013-02-23 07:18:00,43.9,38.7,30.06,North,0,0.0,0.0,82,0.00,,,0.00,WUHU21623XXSP,2013-02-23 15:18:00,
2013-02-23 07:23:00,43.9,38.7,30.06,North,0,0.0,0.0,82,0.00,,,0.00,WUHU21623XXSP,2013-02-23 15:23:00,
2013-02-23 07:28:00,44.1,38.9,30.07,North,0,0.0,0.0,82,0.00,,,0.00,WUHU21623XXSP,2013-02-23 15:28:00,
2013-02-23 07:33:00,44.1,38.9,30.07,North,0,0.0,0.0,82,0.00,,,0.00,WUHU21623XXSP,2013-02-23 15:33:00,
2013-02-23 07:38:00,44.1,38.9,30.07,North,0,0.0,0.0,82,0.00,,,0.00,WUHU21623XXSP,2013-02-23 15:38:00,
2013-02-23 07:43:00,44.1,38.9,30.07,North,0,0.0,0.0,82,0.00,,,0.00,WUHU21623XXSP,2013-02-23 15:43:00,
2013-02-23 07:48:00,44.1,38.9,30.08,North,0,0.0,0.0,82,0.00,,,0.00,WUHU21623XXSP,2013-02-23 15:48:00,
2013-02-23 07:53:00,44.2,39.1,30.08,North,0,0.0,0.0,82,0.00,,,0.00,WUHU21623XXSP,2013-02-23 15:53:00,
2013-02-23 07:58:00,44.4,39.6,30.08,North,0,0.0,0.0,83,0.00,,,0.00,WUHU21623XXSP,2013-02-23 15:58:00,
2013-02-23 08:03:00,44.8,39.9,30.08,North,0,0.0,0.0,83,0.00,,,0.00,WUHU21623XXSP,2013-02-23 16:03:00,
2013-02-23 08:08:00,45.0,40.1,30.08,North,0,0.0,0.0,83,0.00,,,0.00,WUHU21623XXSP,2013-02-23 16:08:00,
2013-02-23 08:13:00,45.1,40.0,30.08,North,0,0.0,0.0,82,0.00,,,0.00,WUHU21623XXSP,2013-02-23 16:13:00,
2013-02-23 08:18:00,45.3,40.2,30.09,North,0,0.0,0.0,82,0.00,,,0.00,WUHU21623XXSP,2013-02-23 16:18:00,
2013-02-23 08:23:00,45.5,40.7,30.08,North,0,0.0,0.0,83,0.00,,,0.00,WUHU21623XXSP,2013-02-23 16:23:00,
2013-02-23 08:28:00,45.7,40.5,30.08,North,0,0.0,0.0,82,0.00,,,0.00,WUHU21623XXSP,2013-02-23 16:28:00,
2013-02-23 08:33:00,45.7,40.5,30.08,North,0,0.0,0.0,82,0.00,,,0.00,WUHU21623XXSP,2013-02-23 16:33:00,
2013-02-23 08:38:00,45.7,40.5,30.09,North,0,0.0,0.0,82,0.00,,,0.00,WUHU21623XXSP,2013-02-23 16:38:00,
2013-02-23 08:43:00,46.0,40.6,30.09,North,0,0.0,0.0,81,0.00,,,0.00,WUHU21623XXSP,2013-02-23 16:43:00,
2013-02-23 08:48:00,46.2,40.8,30.09,North,0,0.0,0.0,81,0.00,,,0.00,WUHU21623XXSP,2013-02-23 16:48:00,
2013-02-23 08:53:00,46.2,40.8,30.09,North,0,0.0,0.0,81,0.00,,,0.00,WUHU21623XXSP,2013-02-23 16:53:00,
2013-02-23 08:58:00,46.2,40.5,30.09,North,0,0.0,0.0,80,0.00,,,0.00,WUHU21623XXSP,2013-02-23 16:58:00,
2013-02-23 09:03:00,46.0,40.3,30.09,North,0,0.0,0.0,80,0.00,,,0.00,WUHU21623XXSP,2013-02-23 17:03:00,
2013-02-23 09:08:00,45.7,39.9,30.09,North,0,0.0,0.0,80,0.00,,,0.00,WUHU21623XXSP,2013-02-23 17:08:00,
2013-02-23 09:13:00,45.3,39.6,30.09,North,0,0.0,0.0,80,0.00,,,0.00,WUHU21623XXSP,2013-02-23 17:13:00,
2013-02-23 09:18:00,45.1,39.7,30.09,North,0,0.0,0.0,81,0.00,,,0.00,WUHU21623XXSP,2013-02-23 17:18:00,
2013-02-23 09:23:00,45.1,39.7,30.09,North,0,0.0,0.0,81,0.00,,,0.00,WUHU21623XXSP,2013-02-23 17:23:00,
2013-02-23 09:28:00,45.1,39.7,30.09,North,0,0.0,0.0,81,0.00,,,0.00,WUHU21623XXSP,2013-02-23 17:28:00,
2013-02-23 09:33:00,45.1,39.7,30.09,North,0,0.0,0.0,81,0.00,,,0.00,WUHU21623XXSP,2013-02-23 17:33:00,
2013-02-23 09:38:00,45.5,40.0,30.09,North,0,0.0,0.0,81,0.00,,,0.00,WUHU21623XXSP,2013-02-23 17:38:00,
2013-02-23 09:43:00,45.7,39.9,30.09,North,0,0.0,0.0,80,0.00,,,0.00,WUHU21623XXSP,2013-02-23 17:43:00,
2013-02-23 09:48:00,46.0,40.3,30.09,North,0,0.0,0.0,80,0.00,,,0.00,WUHU21623XXSP,2013-02-23 17:48:00,
2013-02-23 09:53:00,46.2,40.1,30.09,North,0,0.0,0.0,79,0.00,,,0.00,WUHU21623XXSP,2013-02-23 17:53:00,
2013-02-23 09:58:00,46.0,39.9,30.09,North,0,0.0,0.0,79,0.00,,,0.00,WUHU21623XXSP,2013-02-23 17:58:00,
2013-02-23 10:03:00,46.0,39.6,30.09,North,0,0.0,0.0,78,0.00,,,0.00,WUHU21623XXSP,2013-02-23 18:03:00,
2013-02-23 10:08:00,46.2,39.8,30.09,North,0,0.0,0.0,78,0.00,,,0.00,WUHU21623XXSP,2013-02-23 18:08:00,
2013-02-23 10:13:00,46.2,39.1,30.08,North,0,0.0,0.0,76,0.00,,,0.00,WUHU21623XXSP,2013-02-23 18:13:00,
2013-02-23 10:18:00,46.6,39.4,30.09,North,0,0.0,0.0,76,0.00,,,0.00,WUHU21623XXSP,2013-02-23 18:18:00,
2013-02-23 10:23:00,47.1,39.9,30.09,North,0,0.0,0.0,76,0.00,,,0.00,WUHU21623XXSP,2013-02-23 18:23:00,
2013-02-23 10:28:00,47.1,39.6,30.08,North,0,0.0,0.0,75,0.00,,,0.00,WUHU21623XXSP,2013-02-23 18:28:00,
2013-02-23 10:33:00,47.1,39.2,30.09,North,0,0.0,0.0,74,0.00,,,0.00,WUHU21623XXSP,2013-02-23 18:33:00,
2013-02-23 10:38:00,47.3,39.4,30.08,North,0,0.0,0.0,74,0.00,,,0.00,WUHU21623XXSP,2013-02-23 18:38:00,
2013-02-23 10:43:00,47.8,39.5,30.09,North,0,0.0,0.0,73,0.00,,,0.00,WUHU21623XXSP,2013-02-23 18:43:00,
2013-02-23 10:48:00,48.0,39.7,30.09,North,0,0.0,0.0,73,0.00,,,0.00,WUHU21623XXSP,2013-02-23 18:48:00,
2013-02-23 10:53:00,48.4,40.0,30.08,North,0,0.0,0.0,73,0.00,,,0.00,WUHU21623XXSP,2013-02-23 18:53:00,
2013-02-23 10:58:00,48.4,39.7,30.08,North,0,0.0,0.0,72,0.00,,,0.00,WUHU21623XXSP,2013-02-23 18:58:00,
2013-02-23 11:03:00,48.4,39.0,30.08,North,0,0.0,0.0,70,0.00,,,0.00,WUHU21623XXSP,2013-02-23 19:03:00,
2013-02-23 11:08:00,48.0,38.3,30.08,North,0,0.0,0.0,69,0.00,,,0.00,WUHU21623XXSP,2013-02-23 19:08:00,
2013-02-23 11:13:00,48.2,38.5,30.08,North,0,0.0,0.0,69,0.00,,,0.00,WUHU21623XXSP,2013-02-23 19:13:00,
2013-02-23 11:18:00,48.4,38.2,30.08,North,0,0.0,0.0,68,0.00,,,0.00,WUHU21623XXSP,2013-02-23 19:18:00,
2013-02-23 11:23:00,48.6,38.0,30.08,North,0,0.0,0.0,67,0.00,,,0.00,WUHU21623XXSP,2013-02-23 19:23:00,
2013-02-23 11:28:00,48.7,37.8,30.08,North,0,0.0,0.0,66,0.00,,,0.00,WUHU21623XXSP,2013-02-23 19:28:00,
2013-02-23 11:33:00,48.7,37.5,30.08,North,0,0.0,0.0,65,0.00,,,0.00,WUHU21623XXSP,2013-02-23 19:33:00,
2013-02-23 11:38:00,49.3,38.0,30.07,North,0,0.0,0.0,65,0.00,,,0.00,WUHU21623XXSP,2013-02-23 19:38:00,
2013-02-23 11:43:00,49.6,37.5,30.07,North,0,0.0,0.0,63,0.00,,,0.00,WUHU21623XXSP,2013-02-23 19:43:00,
2013-02-23 11:48:00,50.2,37.2,30.07,North,0,0.0,0.0,61,0.00,,,0.00,WUHU21623XXSP,2013-02-23 19:48:00,
2013-02-23 11:53:00,50.7,37.7,30.07,North,0,0.0,0.0,61,0.00,,,0.00,WUHU21623XXSP,2013-02-23 19:53:00,
2013-02-23 11:58:00,51.4,37.8,30.07,North,0,0.0,0.0,60,0.00,,,0.00,WUHU21623XXSP,2013-02-23 19:58:00,
2013-02-23 12:03:00,51.6,37.7,30.07,North,0,0.0,0.0,59,0.00,,,0.00,WUHU21623XXSP,2013-02-23 20:03:00,
2013-02-23 12:08:00,52.0,37.6,30.06,North,0,0.0,0.0,58,0.00,,,0.00,WUHU21623XXSP,2013-02-23 20:08:00,
2013-02-23 12:13:00,52.2,37.7,30.06,North,0,0.0,0.0,58,0.00,,,0.00,WUHU21623XXSP,2013-02-23 20:13:00,
2013-02-23 12:18:00,52.3,37.9,30.06,North,0,0.0,0.0,58,0.00,,,0.00,WUHU21623XXSP,2013-02-23 20:18:00,
2013-02-23 12:23:00,52.5,37.6,30.05,North,0,0.0,0.0,57,0.00,,,0.00,WUHU21623XXSP,2013-02-23 20:23:00,
2013-02-23 12:28:00,52.9,38.0,30.05,North,0,0.0,0.0,57,0.00,,,0.00,WUHU21623XXSP,2013-02-23 20:28:00,
2013-02-23 12:33:00,52.5,37.2,30.05,North,0,0.0,0.0,56,0.00,,,0.00,WUHU21623XXSP,2013-02-23 20:33:00,
2013-02-23 12:38:00,52.3,37.0,30.05,North,0,0.0,0.0,56,0.00,,,0.00,WUHU21623XXSP,2013-02-23 20:38:00,
2013-02-23 12:43:00,52.3,37.0,30.05,North,0,0.0,0.0,56,0.00,,,0.00,WUHU21623XXSP,2013-02-23 20:43:00,
2013-02-23 12:48:00,52.3,36.6,30.05,North,0,0.0,0.0,55,0.00,,,0.00,WUHU21623XXSP,2013-02-23 20:48:00,
2013-02-23 12:53:00,52.0,36.2,30.05,North,0,0.0,0.0,55,0.00,,,0.00,WUHU21623XXSP,2013-02-23 20:53:00,
2013-02-23 12:58:00,52.2,36.4,30.05,North,0,0.0,0.0,55,0.00,,,0.00,WUHU21623XXSP,2013-02-23 20:58:00,
2013-02-23 13:03:00,52.3,36.6,30.05,North,0,0.0,0.0,55,0.00,,,0.00,WUHU21623XXSP,2013-02-23 21:03:00,
2013-02-23 13:08:00,52.3,36.1,30.05,North,0,0.0,0.0,54,0.00,,,0.00,WUHU21623XXSP,2013-02-23 21:08:00,
2013-02-23 13:13:00,52.3,36.1,30.04,North,0,0.0,0.0,54,0.00,,,0.00,WUHU21623XXSP,2013-02-23 21:13:00,
2013-02-23 13:18:00,52.3,36.1,30.05,North,0,0.0,0.0,54,0.00,,,0.00,WUHU21623XXSP,2013-02-23 21:18:00,
2013-02-23 13:23:00,52.3,36.1,30.04,North,0,0.0,0.0,54,0.00,,,0.00,WUHU21623XXSP,2013-02-23 21:23:00,
2013-02-23 13:28:00,52.5,36.3,30.04,North,0,0.0,0.0,54,0.00,,,0.00,WUHU21623XXSP,2013-02-23 21:28:00,
2013-02-23 13:33:00,52.7,36.4,30.04,North,0,0.0,0.0,54,0.00,,,0.00,WUHU21623XXSP,2013-02-23 21:33:00,
2013-02-23 13:38:00,52.9,36.1,30.04,North,0,0.0,0.0,53,0.00,,,0.00,WUHU21623XXSP,2013-02-23 21:38:00,
2013-02-23 13:43:00,53.2,36.5,30.03,North,0,0.0,0.0,53,0.00,,,0.00,WUHU21623XXSP,2013-02-23 21:43:00,
2013-02-23 13:48:00,53.6,36.4,30.03,North,0,0.0,0.0,52,0.00,,,0.00,WUHU21623XXSP,2013-02-23 21:48:00,
2013-02-23 13:53:00,53.6,35.4,30.03,North,0,0.0,0.0,50,0.00,,,0.00,WUHU21623XXSP,2013-02-23 21:53:00,
2013-02-23 13:58:00,53.4,35.3,30.03,North,0,0.0,0.0,50,0.00,,,0.00,WUHU21623XXSP,2013-02-23 21:58:00,
2013-02-23 14:03:00,53.4,35.3,30.03,North,0,0.0,0.0,50,0.00,,,0.00,WUHU21623XXSP,2013-02-23 22:03:00,
2013-02-23 14:08:00,53.4,35.3,30.03,North,0,0.0,0.0,50,0.00,,,0.00,WUHU21623XXSP,2013-02-23 22:08:00,
2013-02-23 14:13:00,53.4,34.1,30.04,North,0,0.0,0.0,48,0.00,,,0.00,WUHU21623XXSP,2013-02-23 22:13:00,
2013-02-23 14:18:00,53.2,34.0,30.03,North,0,0.0,0.0,48,0.00,,,0.00,WUHU21623XXSP,2013-02-23 22:18:00,
2013-02-23 14:23:00,53.2,33.4,30.03,North,0,0.0,0.0,47,0.00,,,0.00,WUHU21623XXSP,2013-02-23 22:23:00,
2013-02-23 14:28:00,53.8,34.5,30.03,North,0,0.0,0.0,48,0.00,,,0.00,WUHU21623XXSP,2013-02-23 22:28:00,
2013-02-23 14:33:00,54.1,34.2,30.03,North,0,0.0,0.0,47,0.00,,,0.00,WUHU21623XXSP,2013-02-23 22:33:00,
2013-02-23 14:38:00,54.3,33.3,30.03,North,0,0.0,0.0,45,0.00,,,0.00,WUHU21623XXSP,2013-02-23 22:38:00,
2013-02-23 14:43:00,54.3,33.3,30.03,North,0,0.0,0.0,45,0.00,,,0.00,WUHU21623XXSP,2013-02-23 22:43:00,
2013-02-23 14:48:00,54.5,33.4,30.03,North,0,0.0,0.0,45,0.00,,,0.00,WUHU21623XXSP,2013-02-23 22:48:00,
2013-02-23 14:53:00,54.7,33.6,30.03,North,0,0.0,0.0,45,0.00,,,0.00,WUHU21623XXSP,2013-02-23 22:53:00,
2013-02-23 14:58:00,55.0,33.4,30.03,North,0,0.0,0.0,44,0.00,,,0.00,WUHU21623XXSP,2013-02-23 22:58:00,
2013-02-23 15:03:00,55.0,33.4,30.03,North,0,0.0,0.0,44,0.00,,,0.00,WUHU21623XXSP,2013-02-23 23:03:00,
2013-02-23 15:08:00,55.0,32.8,30.03,North,0,0.0,0.0,43,0.00,,,0.00,WUHU21623XXSP,2013-02-23 23:08:00,
2013-02-23 15:13:00,55.0,31.7,30.03,North,0,0.0,0.0,41,0.00,,,0.00,WUHU21623XXSP,2013-02-23 23:13:00,
2013-02-23 15:18:00,54.5,31.8,30.02,North,0,0.0,0.0,42,0.00,,,0.00,WUHU21623XXSP,2013-02-23 23:18:00,
2013-02-23 15:23:00,54.7,31.9,30.02,North,0,0.0,0.0,42,0.00,,,0.00,WUHU21623XXSP,2013-02-23 23:23:00,
2013-02-23 15:28:00,54.9,32.1,30.02,North,0,0.0,0.0,42,0.00,,,0.00,WUHU21623XXSP,2013-02-23 23:28:00,
2013-02-23 15:33:00,54.9,31.5,30.02,North,0,0.0,0.0,41,0.00,,,0.00,WUHU21623XXSP,2013-02-23 23:33:00,
2013-02-23 15:38:00,54.5,30.6,30.03,North,0,0.0,0.0,40,0.00,,,0.00,WUHU21623XXSP,2013-02-23 23:38:00,
2013-02-23 15:43:00,54.3,31.0,30.02,North,0,0.0,0.0,41,0.00,,,0.00,WUHU21623XXSP,2013-02-23 23:43:00,
2013-02-23 15:48:00,54.5,31.2,30.02,North,0,0.0,0.0,41,0.00,,,0.00,WUHU21623XXSP,2013-02-23 23:48:00,
2013-02-23 15:53:00,54.7,31.4,30.03,North,0,0.0,0.0,41,0.00,,,0.00,WUHU21623XXSP,2013-02-23 23:53:00,
2013-02-23 15:58:00,54.9,31.5,30.03,North,0,0.0,0.0,41,0.00,,,0.00,WUHU21623XXSP,2013-02-23 23:58:00,
2013-02-23 16:03:00,54.7,31.4,30.03,North,0,0.0,0.0,41,0.00,,,0.00,WUHU21623XXSP,2013-02-24 00:03:00,
2013-02-23 16:08:00,55.0,32.3,30.03,North,0,0.0,0.0,42,0.00,,,0.00,WUHU21623XXSP,2013-02-24 00:08:00,
2013-02-23 16:13:00,55.0,31.7,30.03,North,0,0.0,0.0,41,0.00,,,0.00,WUHU21623XXSP,2013-02-24 00:13:00,
2013-02-23 16:18:00,55.0,31.7,30.03,North,0,0.0,0.0,41,0.00,,,0.00,WUHU21623XXSP,2013-02-24 00:18:00,
2013-02-23 16:23:00,55.0,31.1,30.03,North,0,0.0,0.0,40,0.00,,,0.00,WUHU21623XXSP,2013-02-24 00:23:00,
2013-02-23 16:28:00,54.9,30.3,30.03,North,0,0.0,0.0,39,0.00,,,0.00,WUHU21623XXSP,2013-02-24 00:28:00,
2013-02-23 16:33:00,54.7,29.4,30.03,North,0,0.0,0.0,38,0.00,,,0.00,WUHU21623XXSP,2013-02-24 00:33:00,
2013-02-23 16:38:00,54.3,29.8,30.03,North,0,0.0,0.0,39,0.00,,,0.00,WUHU21623XXSP,2013-02-24 00:38:00,
2013-02-23 16:43:00,54.3,29.8,30.03,North,0,0.0,0.0,39,0.00,,,0.00,WUHU21623XXSP,2013-02-24 00:43:00,
2013-02-23 16:48:00,54.1,30.3,30.03,North,0,0.0,0.0,40,0.00,,,0.00,WUHU21623XXSP,2013-02-24 00:48:00,
2013-02-23 16:53:00,53.8,29.3,30.03,North,0,0.0,0.0,39,0.00,,,0.00,WUHU21623XXSP,2013-02-24 00:53:00,
2013-02-23 16:58:00,52.9,29.2,30.03,North,0,0.0,0.0,40,0.00,,,0.00,WUHU21623XXSP,2013-02-24 00:58:00,
2013-02-23 17:03:00,52.5,28.9,30.03,North,0,0.0,0.0,40,0.00,,,0.00,WUHU21623XXSP,2013-02-24 01:03:00,
2013-02-23 17:08:00,52.0,28.4,30.03,North,0,0.0,0.0,40,0.00,,,0.00,WUHU21623XXSP,2013-02-24 01:08:00,
2013-02-23 17:13:00,51.6,28.1,30.03,North,0,0.0,0.0,40,0.00,,,0.00,WUHU21623XXSP,2013-02-24 01:13:00,
2013-02-23 17:18:00,51.4,28.5,30.03,North,0,0.0,0.0,41,0.00,,,0.00,WUHU21623XXSP,2013-02-24 01:18:00,
2013-02-23 17:23:00,50.9,28.5,30.04,North,0,0.0,0.0,42,0.00,,,0.00,WUHU21623XXSP,2013-02-24 01:23:00,
2013-02-23 17:28:00,50.5,28.2,30.03,North,0,0.0,0.0,42,0.00,,,0.00,WUHU21623XXSP,2013-02-24 01:28:00,
2013-02-23 17:33:00,50.2,28.4,30.04,North,0,0.0,0.0,43,0.00,,,0.00,WUHU21623XXSP,2013-02-24 01:33:00,
2013-02-23 17:38:00,49.6,27.9,30.05,North,0,0.0,0.0,43,0.00,,,0.00,WUHU21623XXSP,2013-02-24 01:38:00,
2013-02-23 17:43:00,49.1,28.0,30.04,North,0,0.0,0.0,44,0.00,,,0.00,WUHU21623XXSP,2013-02-24 01:43:00,
2013-02-23 17:48:00,48.6,28.0,30.05,North,0,0.0,0.0,45,0.00,,,0.00,WUHU21623XXSP,2013-02-24 01:48:00,
2013-02-23 17:53:00,47.8,27.4,30.05,North,0,0.0,0.0,45,0.00,,,0.00,WUHU21623XXSP,2013-02-24 01:53:00,
2013-02-23 17:58:00,47.1,27.2,30.06,North,0,0.0,0.0,46,0.00,,,0.00,WUHU21623XXSP,2013-02-24 01:58:00,
2013-02-23 18:03:00,46.6,27.3,30.05,North,0,0.0,0.0,47,0.00,,,0.00,WUHU21623XXSP,2013-02-24 02:03:00,
2013-02-23 18:08:00,46.0,27.4,30.06,North,0,0.0,0.0,48,0.00,,,0.00,WUHU21623XXSP,2013-02-24 02:08:00,
2013-02-23 18:13:00,45.5,26.9,30.06,North,0,0.0,0.0,48,0.00,,,0.00,WUHU21623XXSP,2013-02-24 02:13:00,
2013-02-23 18:18:00,45.1,27.1,30.06,North,0,0.0,0.0,49,0.00,,,0.00,WUHU21623XXSP,2013-02-24 02:18:00,
2013-02-23 18:23:00,44.4,27.0,30.07,North,0,0.0,0.0,50,0.00,,,0.00,WUHU21623XXSP,2013-02-24 02:23:00,
2013-02-23 18:28:00,43.7,26.8,30.07,North,0,0.0,0.0,51,0.00,,,0.00,WUHU21623XXSP,2013-02-24 02:28:00,
2013-02-23 18:33:00,43.3,26.9,30.06,North,0,0.0,0.0,52,0.00,,,0.00,WUHU21623XXSP,2013-02-24 02:33:00,
2013-02-23 18:38:00,42.8,26.4,30.07,North,0,0.0,0.0,52,0.00,,,0.00,WUHU21623XXSP,2013-02-24 02:38:00,
2013-02-23 18:43:00,42.4,26.0,30.07,North,0,0.0,0.0,52,0.00,,,0.00,WUHU21623XXSP,2013-02-24 02:43:00,
2013-02-23 18:48:00,42.1,25.7,30.08,North,0,0.0,0.0,52,0.00,,,0.00,WUHU21623XXSP,2013-02-24 02:48:00,
2013-02-23 18:53:00,41.7,25.8,30.07,North,0,0.0,0.0,53,0.00,,,0.00,WUHU21623XXSP,2013-02-24 02:53:00,
2013-02-23 18:58:00,41.4,25.4,30.08,North,0,0.0,0.0,53,0.00,,,0.00,WUHU21623XXSP,2013-02-24 02:58:00,
2013-02-23 19:03:00,41.2,25.7,30.08,North,0,0.0,0.0,54,0.00,,,0.00,WUHU21623XXSP,2013-02-24 03:03:00,
2013-02-23 19:08:00,40.8,25.3,30.08,North,0,0.0,0.0,54,0.00,,,0.00,WUHU21623XXSP,2013-02-24 03:08:00,
2013-02-23 19:13:00,40.6,25.2,30.08,North,0,0.0,0.0,54,0.00,,,0.00,WUHU21623XXSP,2013-02-24 03:13:00,
2013-02-23 19:18:00,40.5,25.0,30.08,North,0,0.0,0.0,54,0.00,,,0.00,WUHU21623XXSP,2013-02-24 03:18:00,
2013-02-23 19:23:00,40.3,24.8,30.08,North,0,0.0,0.0,54,0.00,,,0.00,WUHU21623XXSP,2013-02-24 03:23:00,
2013-02-23 19:28:00,40.1,25.1,30.08,North,0,0.0,0.0,55,0.00,,,0.00,WUHU21623XXSP,2013-02-24 03:28:00,
2013-02-23 19:33:00,39.9,24.9,30.08,North,0,0.0,0.0,55,0.00,,,0.00,WUHU21623XXSP,2013-02-24 03:33:00,
2013-02-23 19:38:00,39.7,24.8,30.08,North,0,0.0,0.0,55,0.00,,,0.00,WUHU21623XXSP,2013-02-24 03:38:00,
2013-02-23 19:43:00,39.6,24.6,30.08,North,0,0.0,0.0,55,0.00,,,0.00,WUHU21623XXSP,2013-02-24 03:43:00,
2013-02-23 19:48:00,39.4,24.4,30.08,North,0,0.0,0.0,55,0.00,,,0.00,WUHU21623XXSP,2013-02-24 03:48:00,
2013-02-23 19:53:00,39.0,24.1,30.08,North,0,0.0,0.0,55,0.00,,,0.00,WUHU21623XXSP,2013-02-24 03:53:00,
2013-02-23 19:58:00,39.0,24.5,30.09,North,0,0.0,0.0,56,0.00,,,0.00,WUHU21623XXSP,2013-02-24 03:58:00,
2013-02-23 20:03:00,38.8,24.4,30.08,North,0,0.0,0.0,56,0.00,,,0.00,WUHU21623XXSP,2013-02-24 04:03:00,
2013-02-23 20:08:00,38.5,24.0,30.08,North,0,0.0,0.0,56,0.00,,,0.00,WUHU21623XXSP,2013-02-24 04:08:00,
2013-02-23 20:13:00,38.5,24.0,30.08,North,0,0.0,0.0,56,0.00,,,0.00,WUHU21623XXSP,2013-02-24 04:13:00,
2013-02-23 20:18:00,38.3,23.9,30.09,North,0,0.0,0.0,56,0.00,,,0.00,WUHU21623XXSP,2013-02-24 04:18:00,
2013-02-23 20:23:00,38.1,23.7,30.08,North,0,0.0,0.0,56,0.00,,,0.00,WUHU21623XXSP,2013-02-24 04:23:00,
2013-02-23 20:28:00,37.9,23.6,30.08,North,0,0.0,0.0,56,0.00,,,0.00,WUHU21623XXSP,2013-02-24 04:28:00,
2013-02-23 20:33:00,37.9,23.6,30.08,North,0,0.0,0.0,56,0.00,,,0.00,WUHU21623XXSP,2013-02-24 04:33:00,
2013-02-23 20:38:00,37.8,23.4,30.08,North,0,0.0,0.0,56,0.00,,,0.00,WUHU21623XXSP,2013-02-24 04:38:00,
2013-02-23 20:43:00,37.8,23.4,30.08,North,0,0.0,0.0,56,0.00,,,0.00,WUHU21623XXSP,2013-02-24 04:43:00,
2013-02-23 20:48:00,37.8,23.4,30.08,North,0,0.0,0.0,56,0.00,,,0.00,WUHU21623XXSP,2013-02-24 04:48:00,
2013-02-23 20:53:00,37.8,23.4,30.09,North,0,0.0,0.0,56,0.00,,,0.00,WUHU21623XXSP,2013-02-24 04:53:00,
2013-02-23 20:58:00,37.8,23.8,30.09,North,0,0.0,0.0,57,0.00,,,0.00,WUHU21623XXSP,2013-02-24 04:58:00,
2013-02-23 21:00:00,37.6,23.7,30.09,North,0,0.0,0.0,57,0.00,,,0.00,WUHU21623XXSP,2013-02-24 05:00:00,
2013-02-23 21:08:00,37.4,24.0,30.09,North,0,0.0,0.0,58,0.00,,,0.00,WUHU21623XXSP,2013-02-24 05:08:00,
2013-02-23 21:18:00,37.2,23.8,30.09,North,0,0.0,0.0,58,0.00,,,0.00,WUHU21623XXSP,2013-02-24 05:18:00,
2013-02-23 21:28:00,37.0,23.6,30.09,North,0,0.0,0.0,58,0.00,,,0.00,WUHU21623XXSP,2013-02-24 05:28:00,
2013-02-23 21:38:00,36.5,23.2,30.09,North,0,0.0,0.0,58,0.00,,,0.00,WUHU21623XXSP,2013-02-24 05:38:00,
2013-02-23 21:48:00,36.3,23.4,30.09,North,0,0.0,0.0,59,0.00,,,0.00,WUHU21623XXSP,2013-02-24 05:48:00,
2013-02-23 21:58:00,36.0,23.5,30.09,North,0,0.0,0.0,60,0.00,,,0.00,WUHU21623XXSP,2013-02-24 05:58:00,
2013-02-23 22:08:00,35.8,23.7,30.09,North,0,0.0,0.0,61,0.00,,,0.00,WUHU21623XXSP,2013-02-24 06:08:00,
2013-02-23 22:18:00,35.8,23.7,30.09,North,0,0.0,0.0,61,0.00,,,0.00,WUHU21623XXSP,2013-02-24 06:18:00,
2013-02-23 22:28:00,35.8,23.7,30.09,North,0,0.0,0.0,61,0.00,,,0.00,WUHU21623XXSP,2013-02-24 06:28:00,
2013-02-23 22:38:00,36.3,23.8,30.09,North,0,0.0,0.0,60,0.00,,,0.00,WUHU21623XXSP,2013-02-24 06:38:00,
2013-02-23 22:48:00,36.3,23.8,30.09,North,0,0.0,0.0,60,0.00,,,0.00,WUHU21623XXSP,2013-02-24 06:48:00,
2013-02-23 22:58:00,35.8,23.7,30.08,North,0,0.0,0.0,61,0.00,,,0.00,WUHU21623XXSP,2013-02-24 06:58:00,
2013-02-23 23:08:00,35.8,23.7,30.08,North,0,0.0,0.0,61,0.00,,,0.00,WUHU21623XXSP,2013-02-24 07:08:00,
2013-02-23 23:18:00,36.1,23.6,30.08,North,0,0.0,0.0,60,0.00,,,0.00,WUHU21623XXSP,2013-02-24 07:18:00,
2013-02-23 23:28:00,35.4,23.3,30.09,North,0,0.0,0.0,61,0.00,,,0.00,WUHU21623XXSP,2013-02-24 07:28:00,
2013-02-23 23:38:00,34.9,22.9,30.09,North,0,0.0,0.0,61,0.00,,,0.00,WUHU21623XXSP,2013-02-24 07:38:00,
2013-02-23 23:48:00,34.5,22.9,30.09,North,0,0.0,0.0,62,0.00,,,0.00,WUHU21623XXSP,2013-02-24 07:48:00,
2013-02-23 23:58:00,34.3,22.7,30.09,North,0,0.0,0.0,62,0.00,,,0.00,WUHU21623XXSP,2013-02-24 07:58:00,